Year,Month,Day,Hour,Minute,Value (Times are PST for temperature in C)
2018,04,24,00,00,10.00
2018,04,24,00,01,10.00
2018,04,24,00,02,9.90
2018,04,24,00,03,9.90
2018,04,24,00,04,9.80
2018,04,24,00,05,9.80
2018,04,24,00,06,9.70
2018,04,24,00,07,9.60
2018,04,24,00,08,9.60
2018,04,24,00,09,9.60
2018,04,24,00,10,9.50
2018,04,24,00,11,9.50
2018,04,24,00,12,9.50
2018,04,24,00,13,9.50
2018,04,24,00,14,9.50
2018,04,24,00,15,9.60
2018,04,24,00,16,9.60
2018,04,24,00,17,9.60
2018,04,24,00,18,9.60
2018,04,24,00,19,9.60
2018,04,24,00,20,9.60
2018,04,24,00,21,9.60
2018,04,24,00,22,9.60
2018,04,24,00,23,9.60
2018,04,24,00,24,9.50
2018,04,24,00,25,9.50
2018,04,24,00,26,9.50
2018,04,24,00,27,9.40
2018,04,24,00,28,9.40
2018,04,24,00,29,9.40
2018,04,24,00,30,9.40
2018,04,24,00,31,9.40
2018,04,24,00,32,9.40
2018,04,24,00,33,9.30
2018,04,24,00,34,9.30
2018,04,24,00,35,9.30
2018,04,24,00,36,9.30
2018,04,24,00,37,9.30
2018,04,24,00,38,9.30
2018,04,24,00,39,9.30
2018,04,24,00,40,9.30
2018,04,24,00,41,9.30
2018,04,24,00,42,9.30
2018,04,24,00,43,9.30
2018,04,24,00,44,9.30
2018,04,24,00,45,9.30
2018,04,24,00,46,9.30
2018,04,24,00,47,9.30
2018,04,24,00,48,9.30
2018,04,24,00,49,9.30
2018,04,24,00,50,9.30
2018,04,24,00,51,9.30
2018,04,24,00,52,9.30
2018,04,24,00,53,9.40
2018,04,24,00,54,9.40
2018,04,24,00,55,9.40
2018,04,24,00,56,9.40
2018,04,24,00,57,9.50
2018,04,24,00,58,9.50
2018,04,24,00,59,9.50
2018,04,24,01,00,9.60
2018,04,24,01,01,9.60
2018,04,24,01,02,9.70
2018,04,24,01,03,9.70
2018,04,24,01,04,9.70
2018,04,24,01,05,9.70
2018,04,24,01,06,9.60
2018,04,24,01,07,9.60
2018,04,24,01,08,9.60
2018,04,24,01,09,9.60
2018,04,24,01,10,9.60
2018,04,24,01,11,9.60
2018,04,24,01,12,9.60
2018,04,24,01,13,9.60
2018,04,24,01,14,9.60
2018,04,24,01,15,9.60
2018,04,24,01,16,9.60
2018,04,24,01,17,9.70
2018,04,24,01,18,9.70
2018,04,24,01,19,9.70
2018,04,24,01,20,9.70
2018,04,24,01,21,9.70
2018,04,24,01,22,9.70
2018,04,24,01,23,9.70
2018,04,24,01,24,9.70
2018,04,24,01,25,9.70
2018,04,24,01,26,9.70
2018,04,24,01,27,9.70
2018,04,24,01,28,9.70
2018,04,24,01,29,9.60
2018,04,24,01,30,9.60
2018,04,24,01,31,9.60
2018,04,24,01,32,9.50
2018,04,24,01,33,9.50
2018,04,24,01,34,9.50
2018,04,24,01,35,9.40
2018,04,24,01,36,9.40
2018,04,24,01,37,9.30
2018,04,24,01,38,9.30
2018,04,24,01,39,9.30
2018,04,24,01,40,9.20
2018,04,24,01,41,9.20
2018,04,24,01,42,9.10
2018,04,24,01,43,9.10
2018,04,24,01,44,9.10
2018,04,24,01,45,9.00
2018,04,24,01,46,9.00
2018,04,24,01,47,8.90
2018,04,24,01,48,8.90
2018,04,24,01,49,8.90
2018,04,24,01,50,8.90
2018,04,24,01,51,8.80
2018,04,24,01,52,8.80
2018,04,24,01,53,8.80
2018,04,24,01,54,8.80
2018,04,24,01,55,8.80
2018,04,24,01,56,8.80
2018,04,24,01,57,8.90
2018,04,24,01,58,8.90
2018,04,24,01,59,8.80
2018,04,24,02,00,8.80
2018,04,24,02,01,8.80
2018,04,24,02,02,8.80
2018,04,24,02,03,8.80
2018,04,24,02,04,8.80
2018,04,24,02,05,8.70
2018,04,24,02,06,8.70
2018,04,24,02,07,8.80
2018,04,24,02,08,8.80
2018,04,24,02,09,8.80
2018,04,24,02,10,8.80
2018,04,24,02,11,8.80
2018,04,24,02,12,8.80
2018,04,24,02,13,8.80
2018,04,24,02,14,8.70
2018,04,24,02,15,8.70
2018,04,24,02,16,8.70
2018,04,24,02,17,8.60
2018,04,24,02,18,8.60
2018,04,24,02,19,8.50
2018,04,24,02,20,8.50
2018,04,24,02,21,8.40
2018,04,24,02,22,8.40
2018,04,24,02,23,8.30
2018,04,24,02,24,8.30
2018,04,24,02,25,8.30
2018,04,24,02,26,8.30
2018,04,24,02,27,8.30
2018,04,24,02,28,8.30
2018,04,24,02,29,8.30
2018,04,24,02,30,8.30
2018,04,24,02,31,8.30
2018,04,24,02,32,8.30
2018,04,24,02,33,8.30
2018,04,24,02,34,8.30
2018,04,24,02,35,8.30
2018,04,24,02,36,8.30
2018,04,24,02,37,8.30
2018,04,24,02,38,8.30
2018,04,24,02,39,8.30
2018,04,24,02,40,8.30
2018,04,24,02,41,8.30
2018,04,24,02,42,8.30
2018,04,24,02,43,8.30
2018,04,24,02,44,8.30
2018,04,24,02,45,8.30
2018,04,24,02,46,8.30
2018,04,24,02,47,8.30
2018,04,24,02,48,8.30
2018,04,24,02,49,8.30
2018,04,24,02,50,8.30
2018,04,24,02,51,8.30
2018,04,24,02,52,8.20
2018,04,24,02,53,8.20
2018,04,24,02,54,8.20
2018,04,24,02,55,8.20
2018,04,24,02,56,8.20
2018,04,24,02,57,8.20
2018,04,24,02,58,8.20
2018,04,24,02,59,8.20
2018,04,24,03,00,8.10
2018,04,24,03,01,8.10
2018,04,24,03,02,8.10
2018,04,24,03,03,8.10
2018,04,24,03,04,8.10
2018,04,24,03,05,8.10
2018,04,24,03,06,8.10
2018,04,24,03,07,8.10
2018,04,24,03,08,8.10
2018,04,24,03,09,8.20
2018,04,24,03,10,8.20
2018,04,24,03,11,8.20
2018,04,24,03,12,8.20
2018,04,24,03,13,8.20
2018,04,24,03,14,8.20
2018,04,24,03,15,8.20
2018,04,24,03,16,8.20
2018,04,24,03,17,8.30
2018,04,24,03,18,8.30
2018,04,24,03,19,8.30
2018,04,24,03,20,8.30
2018,04,24,03,21,8.40
2018,04,24,03,22,8.40
2018,04,24,03,23,8.40
2018,04,24,03,24,8.50
2018,04,24,03,25,8.50
2018,04,24,03,26,8.50
2018,04,24,03,27,8.50
2018,04,24,03,28,8.50
2018,04,24,03,29,8.50
2018,04,24,03,30,8.50
2018,04,24,03,31,8.50
2018,04,24,03,32,8.50
2018,04,24,03,33,8.60
2018,04,24,03,34,8.60
2018,04,24,03,35,8.60
2018,04,24,03,36,8.50
2018,04,24,03,37,8.50
2018,04,24,03,38,8.50
2018,04,24,03,39,8.50
2018,04,24,03,40,8.50
2018,04,24,03,41,8.50
2018,04,24,03,42,8.40
2018,04,24,03,43,8.40
2018,04,24,03,44,8.40
2018,04,24,03,45,8.30
2018,04,24,03,46,8.30
2018,04,24,03,47,8.30
2018,04,24,03,48,8.30
2018,04,24,03,49,8.20
2018,04,24,03,50,8.20
2018,04,24,03,51,8.20
2018,04,24,03,52,8.20
2018,04,24,03,53,8.20
2018,04,24,03,54,8.20
2018,04,24,03,55,8.10
2018,04,24,03,56,8.10
2018,04,24,03,57,8.10
2018,04,24,03,58,8.00
2018,04,24,03,59,8.00
2018,04,24,04,00,8.00
2018,04,24,04,01,7.90
2018,04,24,04,02,7.90
2018,04,24,04,03,7.90
2018,04,24,04,04,7.90
2018,04,24,04,05,7.90
2018,04,24,04,06,7.90
2018,04,24,04,07,7.90
2018,04,24,04,08,7.90
2018,04,24,04,09,7.90
2018,04,24,04,10,7.90
2018,04,24,04,11,7.90
2018,04,24,04,12,7.90
2018,04,24,04,13,7.90
2018,04,24,04,14,7.90
2018,04,24,04,15,7.90
2018,04,24,04,16,7.90
2018,04,24,04,17,7.90
2018,04,24,04,18,7.90
2018,04,24,04,19,7.90
2018,04,24,04,20,7.90
2018,04,24,04,21,7.90
2018,04,24,04,22,7.90
2018,04,24,04,23,7.90
2018,04,24,04,24,7.90
2018,04,24,04,25,7.90
2018,04,24,04,26,7.90
2018,04,24,04,27,7.90
2018,04,24,04,28,7.90
2018,04,24,04,29,7.90
2018,04,24,04,30,7.80
2018,04,24,04,31,7.80
2018,04,24,04,32,7.80
2018,04,24,04,33,7.80
2018,04,24,04,34,7.80
2018,04,24,04,35,7.80
2018,04,24,04,36,7.80
2018,04,24,04,37,7.80
2018,04,24,04,38,7.80
2018,04,24,04,39,7.80
2018,04,24,04,40,7.80
2018,04,24,04,41,7.80
2018,04,24,04,42,7.80
2018,04,24,04,43,7.80
2018,04,24,04,44,7.80
2018,04,24,04,45,7.80
2018,04,24,04,46,7.80
2018,04,24,04,47,7.70
2018,04,24,04,48,7.70
2018,04,24,04,49,7.80
2018,04,24,04,50,7.80
2018,04,24,04,51,7.80
2018,04,24,04,52,7.80
2018,04,24,04,53,7.80
2018,04,24,04,54,7.80
2018,04,24,04,55,7.70
2018,04,24,04,56,7.70
2018,04,24,04,57,7.70
2018,04,24,04,58,7.70
2018,04,24,04,59,7.70
2018,04,24,05,00,7.70
2018,04,24,05,01,7.70
2018,04,24,05,02,7.70
2018,04,24,05,03,7.70
2018,04,24,05,04,7.70
2018,04,24,05,05,7.70
2018,04,24,05,06,7.70
2018,04,24,05,07,7.70
2018,04,24,05,08,7.70
2018,04,24,05,09,7.70
2018,04,24,05,10,7.70
2018,04,24,05,11,7.70
2018,04,24,05,12,7.70
2018,04,24,05,13,7.70
2018,04,24,05,14,7.80
2018,04,24,05,15,7.80
2018,04,24,05,16,7.80
2018,04,24,05,17,7.80
2018,04,24,05,18,7.80
2018,04,24,05,19,7.80
2018,04,24,05,20,7.80
2018,04,24,05,21,7.80
2018,04,24,05,22,7.80
2018,04,24,05,23,7.90
2018,04,24,05,24,7.90
2018,04,24,05,25,7.80
2018,04,24,05,26,7.80
2018,04,24,05,27,7.80
2018,04,24,05,28,7.80
2018,04,24,05,29,7.80
2018,04,24,05,30,7.80
2018,04,24,05,31,7.80
2018,04,24,05,32,7.80
2018,04,24,05,33,7.80
2018,04,24,05,34,7.80
2018,04,24,05,35,7.80
2018,04,24,05,36,7.80
2018,04,24,05,37,7.70
2018,04,24,05,38,7.80
2018,04,24,05,39,7.70
2018,04,24,05,40,7.70
2018,04,24,05,41,7.70
2018,04,24,05,42,7.70
2018,04,24,05,43,7.70
2018,04,24,05,44,7.70
2018,04,24,05,45,7.70
2018,04,24,05,46,7.70
2018,04,24,05,47,7.60
2018,04,24,05,48,7.60
2018,04,24,05,49,7.60
2018,04,24,05,50,7.50
2018,04,24,05,51,7.50
2018,04,24,05,52,7.50
2018,04,24,05,53,7.50
2018,04,24,05,54,7.40
2018,04,24,05,55,7.40
2018,04,24,05,56,7.40
2018,04,24,05,57,7.40
2018,04,24,05,58,7.40
2018,04,24,05,59,7.40
2018,04,24,06,00,7.40
2018,04,24,06,01,7.40
2018,04,24,06,02,7.40
2018,04,24,06,03,7.30
2018,04,24,06,04,7.30
2018,04,24,06,05,7.30
2018,04,24,06,06,7.30
2018,04,24,06,07,7.30
2018,04,24,06,08,7.30
2018,04,24,06,09,7.20
2018,04,24,06,10,7.20
2018,04,24,06,11,7.20
2018,04,24,06,12,7.20
2018,04,24,06,13,7.20
2018,04,24,06,14,7.10
2018,04,24,06,15,7.10
2018,04,24,06,16,7.10
2018,04,24,06,17,7.10
2018,04,24,06,18,7.00
2018,04,24,06,19,7.00
2018,04,24,06,20,7.00
2018,04,24,06,21,7.00
2018,04,24,06,22,7.00
2018,04,24,06,23,7.00
2018,04,24,06,24,7.00
2018,04,24,06,25,7.00
2018,04,24,06,26,7.00
2018,04,24,06,27,7.00
2018,04,24,06,28,7.00
2018,04,24,06,29,7.00
2018,04,24,06,30,7.00
2018,04,24,06,31,7.00
2018,04,24,06,32,7.10
2018,04,24,06,33,7.10
2018,04,24,06,34,7.10
2018,04,24,06,35,7.10
2018,04,24,06,36,7.10
2018,04,24,06,37,7.20
2018,04,24,06,38,7.20
2018,04,24,06,39,7.20
2018,04,24,06,40,7.30
2018,04,24,06,41,7.30
2018,04,24,06,42,7.30
2018,04,24,06,43,7.30
2018,04,24,06,44,7.40
2018,04,24,06,45,7.40
2018,04,24,06,46,7.40
2018,04,24,06,47,7.50
2018,04,24,06,48,7.50
2018,04,24,06,49,7.50
2018,04,24,06,50,7.50
2018,04,24,06,51,7.50
2018,04,24,06,52,7.50
2018,04,24,06,53,7.60
2018,04,24,06,54,7.60
2018,04,24,06,55,7.60
2018,04,24,06,56,7.60
2018,04,24,06,57,7.60
2018,04,24,06,58,7.60
2018,04,24,06,59,7.60
2018,04,24,07,00,7.60
2018,04,24,07,01,7.60
2018,04,24,07,02,7.60
2018,04,24,07,03,7.60
2018,04,24,07,04,7.60
2018,04,24,07,05,7.60
2018,04,24,07,06,7.60
2018,04,24,07,07,7.60
2018,04,24,07,08,7.60
2018,04,24,07,09,7.60
2018,04,24,07,10,7.60
2018,04,24,07,11,7.60
2018,04,24,07,12,7.60
2018,04,24,07,13,7.60
2018,04,24,07,14,7.60
2018,04,24,07,15,7.60
2018,04,24,07,16,7.60
2018,04,24,07,17,7.60
2018,04,24,07,18,7.60
2018,04,24,07,19,7.60
2018,04,24,07,20,7.60
2018,04,24,07,21,7.70
2018,04,24,07,22,7.70
2018,04,24,07,23,7.70
2018,04,24,07,24,7.70
2018,04,24,07,25,7.70
2018,04,24,07,26,7.70
2018,04,24,07,27,7.70
2018,04,24,07,28,7.70
2018,04,24,07,29,7.80
2018,04,24,07,30,7.80
2018,04,24,07,31,7.80
2018,04,24,07,32,7.90
2018,04,24,07,33,7.90
2018,04,24,07,34,8.00
2018,04,24,07,35,8.00
2018,04,24,07,36,8.10
2018,04,24,07,37,8.10
2018,04,24,07,38,8.20
2018,04,24,07,39,8.20
2018,04,24,07,40,8.30
2018,04,24,07,41,8.30
2018,04,24,07,42,8.30
2018,04,24,07,43,8.30
2018,04,24,07,44,8.40
2018,04,24,07,45,8.40
2018,04,24,07,46,8.40
2018,04,24,07,47,8.50
2018,04,24,07,48,8.50
2018,04,24,07,49,8.60
2018,04,24,07,50,8.60
2018,04,24,07,51,8.70
2018,04,24,07,52,8.80
2018,04,24,07,53,8.80
2018,04,24,07,54,8.90
2018,04,24,07,55,8.90
2018,04,24,07,56,8.90
2018,04,24,07,57,9.00
2018,04,24,07,58,9.00
2018,04,24,07,59,9.00
2018,04,24,08,00,9.00
2018,04,24,08,01,9.00
2018,04,24,08,02,9.00
2018,04,24,08,03,9.10
2018,04,24,08,04,9.10
2018,04,24,08,05,9.10
2018,04,24,08,06,9.20
2018,04,24,08,07,9.20
2018,04,24,08,08,9.20
2018,04,24,08,09,9.20
2018,04,24,08,10,9.30
2018,04,24,08,11,9.30
2018,04,24,08,12,9.40
2018,04,24,08,13,9.40
2018,04,24,08,14,9.50
2018,04,24,08,15,9.60
2018,04,24,08,16,9.70
2018,04,24,08,17,9.70
2018,04,24,08,18,9.70
2018,04,24,08,19,9.70
2018,04,24,08,20,9.70
2018,04,24,08,21,9.80
2018,04,24,08,22,9.80
2018,04,24,08,23,9.80
2018,04,24,08,24,9.90
2018,04,24,08,25,10.00
2018,04,24,08,26,10.10
2018,04,24,08,27,10.10
2018,04,24,08,28,10.20
2018,04,24,08,29,10.20
2018,04,24,08,30,10.20
2018,04,24,08,31,10.30
2018,04,24,08,32,10.30
2018,04,24,08,33,10.30
2018,04,24,08,34,10.40
2018,04,24,08,35,10.60
2018,04,24,08,36,10.80
2018,04,24,08,37,10.90
2018,04,24,08,38,11.10
2018,04,24,08,39,11.20
2018,04,24,08,40,11.40
2018,04,24,08,41,11.50
2018,04,24,08,42,11.70
2018,04,24,08,43,11.90
2018,04,24,08,44,12.10
2018,04,24,08,45,12.20
2018,04,24,08,46,12.40
2018,04,24,08,47,12.60
2018,04,24,08,48,12.90
2018,04,24,08,49,13.10
2018,04,24,08,50,13.20
2018,04,24,08,51,13.40
2018,04,24,08,52,13.50
2018,04,24,08,53,13.70
2018,04,24,08,54,13.80
2018,04,24,08,55,13.90
2018,04,24,08,56,14.00
2018,04,24,08,57,14.00
2018,04,24,08,58,14.00
2018,04,24,08,59,14.00
2018,04,24,09,00,13.90
2018,04,24,09,01,13.80
2018,04,24,09,02,13.60
2018,04,24,09,03,13.50
2018,04,24,09,04,13.40
2018,04,24,09,05,13.30
2018,04,24,09,06,13.30
2018,04,24,09,07,13.20
2018,04,24,09,08,13.20
2018,04,24,09,09,13.10
2018,04,24,09,10,13.10
2018,04,24,09,11,13.00
2018,04,24,09,12,12.90
2018,04,24,09,13,12.80
2018,04,24,09,14,12.80
2018,04,24,09,15,12.80
2018,04,24,09,16,12.80
2018,04,24,09,17,12.80
2018,04,24,09,18,12.80
2018,04,24,09,19,12.80
2018,04,24,09,20,12.80
2018,04,24,09,21,12.90
2018,04,24,09,22,12.90
2018,04,24,09,23,13.00
2018,04,24,09,24,13.00
2018,04,24,09,25,13.10
2018,04,24,09,26,13.10
2018,04,24,09,27,13.10
2018,04,24,09,28,13.10
2018,04,24,09,29,13.20
2018,04,24,09,30,13.30
2018,04,24,09,31,13.30
2018,04,24,09,32,13.30
2018,04,24,09,33,13.30
2018,04,24,09,34,13.30
2018,04,24,09,35,13.40
2018,04,24,09,36,13.30
2018,04,24,09,37,13.30
2018,04,24,09,38,13.30
2018,04,24,09,39,13.40
2018,04,24,09,40,13.40
2018,04,24,09,41,13.50
2018,04,24,09,42,13.60
2018,04,24,09,43,13.60
2018,04,24,09,44,13.60
2018,04,24,09,45,13.60
2018,04,24,09,46,13.60
2018,04,24,09,47,13.60
2018,04,24,09,48,13.60
2018,04,24,09,49,13.60
2018,04,24,09,50,13.60
2018,04,24,09,51,13.60
2018,04,24,09,52,13.60
2018,04,24,09,53,13.70
2018,04,24,09,54,13.70
2018,04,24,09,55,13.70
2018,04,24,09,56,13.80
2018,04,24,09,57,13.80
2018,04,24,09,58,13.80
2018,04,24,09,59,13.80
2018,04,24,10,00,13.80
2018,04,24,10,01,13.80
2018,04,24,10,02,13.80
2018,04,24,10,03,13.90
2018,04,24,10,04,13.90
2018,04,24,10,05,13.80
2018,04,24,10,06,13.80
2018,04,24,10,07,13.80
2018,04,24,10,08,13.80
2018,04,24,10,09,13.80
2018,04,24,10,10,13.80
2018,04,24,10,11,13.90
2018,04,24,10,12,14.00
2018,04,24,10,13,14.00
2018,04,24,10,14,14.10
2018,04,24,10,15,14.20
2018,04,24,10,16,14.30
2018,04,24,10,17,14.30
2018,04,24,10,18,14.30
2018,04,24,10,19,14.30
2018,04,24,10,20,14.30
2018,04,24,10,21,14.30
2018,04,24,10,22,14.40
2018,04,24,10,23,14.50
2018,04,24,10,24,14.50
2018,04,24,10,25,14.40
2018,04,24,10,26,14.40
2018,04,24,10,27,14.50
2018,04,24,10,28,14.50
2018,04,24,10,29,14.60
2018,04,24,10,30,14.60
2018,04,24,10,31,14.60
2018,04,24,10,32,14.60
2018,04,24,10,33,14.60
2018,04,24,10,34,14.70
2018,04,24,10,35,14.70
2018,04,24,10,36,14.70
2018,04,24,10,37,14.60
2018,04,24,10,38,14.60
2018,04,24,10,39,14.50
2018,04,24,10,40,14.50
2018,04,24,10,41,14.60
2018,04,24,10,42,14.60
2018,04,24,10,43,14.70
2018,04,24,10,44,14.60
2018,04,24,10,45,14.60
2018,04,24,10,46,14.60
2018,04,24,10,47,14.60
2018,04,24,10,48,14.60
2018,04,24,10,49,14.50
2018,04,24,10,50,14.60
2018,04,24,10,51,14.70
2018,04,24,10,52,14.70
2018,04,24,10,53,14.70
2018,04,24,10,54,14.70
2018,04,24,10,55,14.70
2018,04,24,10,56,14.70
2018,04,24,10,57,14.60
2018,04,24,10,58,14.60
2018,04,24,10,59,14.60
2018,04,24,11,00,14.60
2018,04,24,11,01,14.60
2018,04,24,11,02,14.60
2018,04,24,11,03,14.60
2018,04,24,11,04,14.60
2018,04,24,11,05,14.50
2018,04,24,11,06,14.50
2018,04,24,11,07,14.40
2018,04,24,11,08,14.40
2018,04,24,11,09,14.40
2018,04,24,11,10,14.30
2018,04,24,11,11,14.30
2018,04,24,11,12,14.30
2018,04,24,11,13,14.40
2018,04,24,11,14,14.40
2018,04,24,11,15,14.40
2018,04,24,11,16,14.40
2018,04,24,11,17,14.50
2018,04,24,11,18,14.60
2018,04,24,11,19,14.60
2018,04,24,11,20,14.70
2018,04,24,11,21,14.70
2018,04,24,11,22,14.80
2018,04,24,11,23,14.80
2018,04,24,11,24,14.80
2018,04,24,11,25,14.80
2018,04,24,11,26,14.80
2018,04,24,11,27,14.80
2018,04,24,11,28,14.80
2018,04,24,11,29,14.70
2018,04,24,11,30,14.70
2018,04,24,11,31,14.70
2018,04,24,11,32,14.70
2018,04,24,11,33,14.70
2018,04,24,11,34,14.70
2018,04,24,11,35,14.70
2018,04,24,11,36,14.70
2018,04,24,11,37,14.70
2018,04,24,11,38,14.80
2018,04,24,11,39,14.80
2018,04,24,11,40,14.90
2018,04,24,11,41,14.90
2018,04,24,11,42,15.00
2018,04,24,11,43,15.00
2018,04,24,11,44,15.00
2018,04,24,11,45,15.10
2018,04,24,11,46,15.10
2018,04,24,11,47,15.10
2018,04,24,11,48,15.20
2018,04,24,11,49,15.20
2018,04,24,11,50,15.30
2018,04,24,11,51,15.40
2018,04,24,11,52,15.40
2018,04,24,11,53,15.50
2018,04,24,11,54,15.60
2018,04,24,11,55,15.60
2018,04,24,11,56,15.70
2018,04,24,11,57,15.70
2018,04,24,11,58,15.70
2018,04,24,11,59,15.70
2018,04,24,12,00,15.80
2018,04,24,12,01,15.80
2018,04,24,12,02,15.80
2018,04,24,12,03,15.80
2018,04,24,12,04,15.80
2018,04,24,12,05,15.80
2018,04,24,12,06,15.80
2018,04,24,12,07,15.80
2018,04,24,12,08,15.80
2018,04,24,12,09,15.80
2018,04,24,12,10,15.80
2018,04,24,12,11,15.80
2018,04,24,12,12,15.90
2018,04,24,12,13,15.80
2018,04,24,12,14,15.80
2018,04,24,12,15,15.70
2018,04,24,12,16,15.70
2018,04,24,12,17,15.70
2018,04,24,12,18,15.70
2018,04,24,12,19,15.70
2018,04,24,12,20,15.70
2018,04,24,12,21,15.70
2018,04,24,12,22,15.70
2018,04,24,12,23,15.80
2018,04,24,12,24,15.80
2018,04,24,12,25,15.80
2018,04,24,12,26,15.80
2018,04,24,12,27,15.90
2018,04,24,12,28,15.90
2018,04,24,12,29,15.90
2018,04,24,12,30,15.90
2018,04,24,12,31,15.90
2018,04,24,12,32,15.90
2018,04,24,12,33,15.90
2018,04,24,12,34,16.00
2018,04,24,12,35,16.00
2018,04,24,12,36,16.00
2018,04,24,12,37,16.00
2018,04,24,12,38,16.00
2018,04,24,12,39,16.00
2018,04,24,12,40,16.00
2018,04,24,12,41,16.00
2018,04,24,12,42,16.10
2018,04,24,12,43,16.10
2018,04,24,12,44,16.10
2018,04,24,12,45,16.10
2018,04,24,12,46,16.10
2018,04,24,12,47,16.20
2018,04,24,12,48,16.20
2018,04,24,12,49,16.20
2018,04,24,12,50,16.20
2018,04,24,12,51,16.20
2018,04,24,12,52,16.20
2018,04,24,12,53,16.30
2018,04,24,12,54,16.30
2018,04,24,12,55,16.30
2018,04,24,12,56,16.40
2018,04,24,12,57,16.50
2018,04,24,12,58,16.50
2018,04,24,12,59,16.60
2018,04,24,13,00,16.60
2018,04,24,13,01,16.70
2018,04,24,13,02,16.80
2018,04,24,13,03,16.80
2018,04,24,13,04,16.80
2018,04,24,13,05,16.80
2018,04,24,13,06,16.80
2018,04,24,13,07,16.80
2018,04,24,13,08,16.80
2018,04,24,13,09,16.80
2018,04,24,13,10,16.90
2018,04,24,13,11,16.90
2018,04,24,13,12,16.90
2018,04,24,13,13,17.00
2018,04,24,13,14,17.00
2018,04,24,13,15,17.10
2018,04,24,13,16,17.10
2018,04,24,13,17,17.20
2018,04,24,13,18,17.20
2018,04,24,13,19,17.30
2018,04,24,13,20,17.40
2018,04,24,13,21,17.40
2018,04,24,13,22,17.50
2018,04,24,13,23,17.50
2018,04,24,13,24,17.50
2018,04,24,13,25,17.60
2018,04,24,13,26,17.80
2018,04,24,13,27,17.90
2018,04,24,13,28,18.00
2018,04,24,13,29,18.00
2018,04,24,13,30,18.00
2018,04,24,13,31,18.00
2018,04,24,13,32,18.00
2018,04,24,13,33,18.00
2018,04,24,13,34,17.90
2018,04,24,13,35,17.90
2018,04,24,13,36,17.90
2018,04,24,13,37,18.00
2018,04,24,13,38,18.00
2018,04,24,13,39,18.10
2018,04,24,13,40,18.10
2018,04,24,13,41,18.10
2018,04,24,13,42,18.10
2018,04,24,13,43,18.20
2018,04,24,13,44,18.20
2018,04,24,13,45,18.10
2018,04,24,13,46,18.10
2018,04,24,13,47,18.10
2018,04,24,13,48,18.20
2018,04,24,13,49,18.20
2018,04,24,13,50,18.20
2018,04,24,13,51,18.20
2018,04,24,13,52,18.30
2018,04,24,13,53,18.30
2018,04,24,13,54,18.30
2018,04,24,13,55,18.40
2018,04,24,13,56,18.40
2018,04,24,13,57,18.50
2018,04,24,13,58,18.50
2018,04,24,13,59,18.50
2018,04,24,14,00,18.50
2018,04,24,14,01,18.40
2018,04,24,14,02,18.40
2018,04,24,14,03,18.40
2018,04,24,14,04,18.30
2018,04,24,14,05,18.20
2018,04,24,14,06,18.20
2018,04,24,14,07,18.10
2018,04,24,14,08,18.00
2018,04,24,14,09,18.00
2018,04,24,14,10,18.00
2018,04,24,14,11,17.90
2018,04,24,14,12,17.90
2018,04,24,14,13,17.90
2018,04,24,14,14,17.90
2018,04,24,14,15,18.00
2018,04,24,14,16,18.10
2018,04,24,14,17,18.10
2018,04,24,14,18,18.10
2018,04,24,14,19,18.10
2018,04,24,14,20,18.10
2018,04,24,14,21,18.10
2018,04,24,14,22,18.10
2018,04,24,14,23,18.00
2018,04,24,14,24,18.00
2018,04,24,14,25,18.10
2018,04,24,14,26,18.00
2018,04,24,14,27,18.00
2018,04,24,14,28,17.90
2018,04,24,14,29,18.00
2018,04,24,14,30,18.00
2018,04,24,14,31,18.10
2018,04,24,14,32,18.10
2018,04,24,14,33,18.10
2018,04,24,14,34,18.20
2018,04,24,14,35,18.20
2018,04,24,14,36,18.20
2018,04,24,14,37,18.10
2018,04,24,14,38,18.00
2018,04,24,14,39,18.00
2018,04,24,14,40,17.90
2018,04,24,14,41,17.90
2018,04,24,14,42,17.90
2018,04,24,14,43,17.90
2018,04,24,14,44,18.00
2018,04,24,14,45,18.00
2018,04,24,14,46,18.00
2018,04,24,14,47,18.00
2018,04,24,14,48,18.10
2018,04,24,14,49,18.00
2018,04,24,14,50,18.00
2018,04,24,14,51,17.90
2018,04,24,14,52,17.90
2018,04,24,14,53,17.90
2018,04,24,14,54,18.00
2018,04,24,14,55,18.00
2018,04,24,14,56,17.90
2018,04,24,14,57,17.90
2018,04,24,14,58,18.00
2018,04,24,14,59,18.00
2018,04,24,15,00,18.10
2018,04,24,15,01,18.10
2018,04,24,15,02,18.10
2018,04,24,15,03,18.10
2018,04,24,15,04,18.20
2018,04,24,15,05,18.30
2018,04,24,15,06,18.30
2018,04,24,15,07,18.30
2018,04,24,15,08,18.30
2018,04,24,15,09,18.20
2018,04,24,15,10,18.20
2018,04,24,15,11,18.20
2018,04,24,15,12,18.20
2018,04,24,15,13,18.10
2018,04,24,15,14,18.10
2018,04,24,15,15,18.10
2018,04,24,15,16,18.10
2018,04,24,15,17,18.10
2018,04,24,15,18,18.10
2018,04,24,15,19,18.10
2018,04,24,15,20,18.10
2018,04,24,15,21,18.10
2018,04,24,15,22,18.10
2018,04,24,15,23,18.20
2018,04,24,15,24,18.20
2018,04,24,15,25,18.30
2018,04,24,15,26,18.30
2018,04,24,15,27,18.20
2018,04,24,15,28,18.20
2018,04,24,15,29,18.20
2018,04,24,15,30,18.20
2018,04,24,15,31,18.20
2018,04,24,15,32,18.20
2018,04,24,15,33,18.30
2018,04,24,15,34,18.30
2018,04,24,15,35,18.30
2018,04,24,15,36,18.30
2018,04,24,15,37,18.30
2018,04,24,15,38,18.40
2018,04,24,15,39,18.40
2018,04,24,15,40,18.40
2018,04,24,15,41,18.50
2018,04,24,15,42,18.60
2018,04,24,15,43,18.60
2018,04,24,15,44,18.70
2018,04,24,15,45,18.70
2018,04,24,15,46,18.70
2018,04,24,15,47,18.70
2018,04,24,15,48,18.60
2018,04,24,15,49,18.60
2018,04,24,15,50,18.70
2018,04,24,15,51,18.70
2018,04,24,15,52,18.70
2018,04,24,15,53,18.80
2018,04,24,15,54,18.80
2018,04,24,15,55,18.80
2018,04,24,15,56,18.80
2018,04,24,15,57,18.80
2018,04,24,15,58,18.80
2018,04,24,15,59,18.70
2018,04,24,16,00,18.70
2018,04,24,16,01,18.80
2018,04,24,16,02,18.80
2018,04,24,16,03,18.80
2018,04,24,16,04,18.90
2018,04,24,16,05,18.90
2018,04,24,16,06,18.90
2018,04,24,16,07,18.90
2018,04,24,16,08,18.90
2018,04,24,16,09,18.90
2018,04,24,16,10,18.90
2018,04,24,16,11,18.90
2018,04,24,16,12,18.90
2018,04,24,16,13,18.80
2018,04,24,16,14,18.80
2018,04,24,16,15,18.90
2018,04,24,16,16,18.90
2018,04,24,16,17,18.90
2018,04,24,16,18,18.90
2018,04,24,16,19,18.90
2018,04,24,16,20,19.00
2018,04,24,16,21,19.00
2018,04,24,16,22,19.10
2018,04,24,16,23,19.10
2018,04,24,16,24,19.10
2018,04,24,16,25,19.10
2018,04,24,16,26,19.10
2018,04,24,16,27,19.10
2018,04,24,16,28,19.10
2018,04,24,16,29,19.20
2018,04,24,16,30,19.20
2018,04,24,16,31,19.30
2018,04,24,16,32,19.30
2018,04,24,16,33,19.40
2018,04,24,16,34,19.50
2018,04,24,16,35,19.50
2018,04,24,16,36,19.60
2018,04,24,16,37,19.60
2018,04,24,16,38,19.70
2018,04,24,16,39,19.70
2018,04,24,16,40,19.70
2018,04,24,16,41,19.70
2018,04,24,16,42,19.70
2018,04,24,16,43,19.70
2018,04,24,16,44,19.70
2018,04,24,16,45,19.80
2018,04,24,16,46,19.80
2018,04,24,16,47,19.80
2018,04,24,16,48,19.90
2018,04,24,16,49,19.90
2018,04,24,16,50,19.90
2018,04,24,16,51,19.90
2018,04,24,16,52,19.90
2018,04,24,16,53,19.90
2018,04,24,16,54,19.80
2018,04,24,16,55,19.80
2018,04,24,16,56,19.80
2018,04,24,16,57,19.80
2018,04,24,16,58,19.70
2018,04,24,16,59,19.70
2018,04,24,17,00,19.70
2018,04,24,17,01,19.70
2018,04,24,17,02,19.70
2018,04,24,17,03,19.70
2018,04,24,17,04,19.70
2018,04,24,17,05,19.60
2018,04,24,17,06,19.60
2018,04,24,17,07,19.60
2018,04,24,17,08,19.60
2018,04,24,17,09,19.50
2018,04,24,17,10,19.50
2018,04,24,17,11,19.50
2018,04,24,17,12,19.50
2018,04,24,17,13,19.40
2018,04,24,17,14,19.40
2018,04,24,17,15,19.40
2018,04,24,17,16,19.40
2018,04,24,17,17,19.40
2018,04,24,17,18,19.50
2018,04,24,17,19,19.50
2018,04,24,17,20,19.50
2018,04,24,17,21,19.50
2018,04,24,17,22,19.40
2018,04,24,17,23,19.40
2018,04,24,17,24,19.40
2018,04,24,17,25,19.50
2018,04,24,17,26,19.50
2018,04,24,17,27,19.50
2018,04,24,17,28,19.50
2018,04,24,17,29,19.60
2018,04,24,17,30,19.60
2018,04,24,17,31,19.60
2018,04,24,17,32,19.70
2018,04,24,17,33,19.70
2018,04,24,17,34,19.70
2018,04,24,17,35,19.70
2018,04,24,17,36,19.70
2018,04,24,17,37,19.70
2018,04,24,17,38,19.70
2018,04,24,17,39,19.70
2018,04,24,17,40,19.80
2018,04,24,17,41,19.80